[TLELIST] Archives

 

[list_settings.list_name] Current TLEs

April 9th 2014 PDT

HST 1 20580U 90037B 14098.45688046 .00003139 00000-0 20323-3 0 4766 2 20580 028.4697 135.4394 0002890 258.8013 250.7840 15.05125465114206 ISS (ZARYA) 1 25544U 98067A 14099.45702758 .00017197 00000-0 30173-3 0 422 2 25544 051.6492 080.1813 0002119 009.6310 095.8970 15.50644755880660 CXO 1 25867U 99040B 14101.77504380 .00000107 00000-0 00000+0 0 135 2 25867 076.7337 323.6750 8205771 274.9059 359.9722 00.37801697 11667 ____________________________________________________________________ These 2-Line ...Continue Reading

[list_settings.list_name] Current TLEs

April 8th 2014 PDT

HST 1 20580U 90037B 14097.23577213 .00003973 00000-0 26044-3 0 4755 2 20580 028.4709 143.4734 0002993 240.0909 119.9267 15.05118472114016 ISS (ZARYA) 1 25544U 98067A 14098.43339366 .00017800 00000-0 31237-3 0 355 2 25544 051.6497 085.2569 0002138 002.3727 145.1984 15.50611201880509 CXO 1 25867U 99040B 14099.13049738 .00000148 00000-0 00000+0 0 126 2 25867 076.7260 323.7894 8206829 274.9537 359.9366 00.37798143 11652 ____________________________________________________________________ These 2-Line ...Continue Reading

[list_settings.list_name] Current TLEs

April 7th 2014 PDT

HST 1 20580U 90037B 14097.23577213 .00003973 00000-0 26044-3 0 4755 2 20580 028.4709 143.4734 0002993 240.0909 119.9267 15.05118472114016 ISS (ZARYA) 1 25544U 98067A 14097.40289501 .00017757 00000-0 31206-3 0 274 2 25544 051.6492 090.3653 0002254 357.9824 153.4078 15.50573542880344 CXO 1 25867U 99040B 14099.13049738 .00000148 00000-0 00000+0 0 126 2 25867 076.7260 323.7894 8206829 274.9537 359.9366 00.37798143 11652 ____________________________________________________________________ These 2-Line ...Continue Reading

[list_settings.list_name] Current TLEs

April 6th 2014 PDT

HST 1 20580U 90037B 14096.18135586 .00004293 00000-0 28243-3 0 4749 2 20580 028.4695 150.3897 0002953 230.1353 165.3507 15.05110700113855 ISS (ZARYA) 1 25544U 98067A 14096.23578505 .00016018 00000-0 28279-3 0 207 2 25544 051.6487 096.1528 0002172 354.6820 117.6039 15.50526843880163 CXO 1 25867U 99040B 14099.13049738 .00000148 00000-0 00000+0 0 126 2 25867 076.7260 323.7894 8206829 274.9537 359.9366 00.37798143 11652 ____________________________________________________________________ These 2-Line ...Continue Reading

[list_settings.list_name] Current TLEs

April 5th 2014 PDT

HST 1 20580U 90037B 14094.61155800 .00004203 00000-0 27637-3 0 4732 2 20580 028.4693 160.7041 0002968 212.5557 300.3781 15.05099897113628 ISS (ZARYA) 1 25544U 98067A 14095.40411826 .00016379 00000-0 28925-3 0 159 2 25544 051.6494 100.2749 0001934 350.8660 156.1189 15.50500013880039 CXO 1 25867U 99040B 14096.48533442 .00000138 00000-0 00000+0 0 119 2 25867 076.7133 323.8973 8210417 275.0071 359.7970 00.37799767 11644 ____________________________________________________________________ These 2-Line ...Continue Reading

[list_settings.list_name] Current TLEs

April 4th 2014 PDT

HST 1 20580U 90037B 14093.61010425 .00004264 00000-0 28058-3 0 4728 2 20580 028.4692 167.2842 0002989 201.0624 274.9397 15.05090680113472 ISS (ZARYA) 1 25544U 98067A 14094.43788407 -.00144922 00000-0 -25393-2 0 88 2 25544 051.6509 105.0598 0003917 331.5488 178.5988 15.50423440879882 CXO 1 25867U 99040B 14096.48533442 .00000138 00000-0 00000+0 0 119 2 25867 076.7133 323.8973 8210417 275.0071 359.7970 00.37799767 11644 ____________________________________________________________________ These 2-Line ...Continue Reading

[list_settings.list_name] Current TLEs

April 3rd 2014 PDT

HST 1 20580U 90037B 14092.48021456 .00005138 00000-0 34060-3 0 4718 2 20580 028.4693 174.7077 0003106 187.8597 273.9630 15.05079953113297 ISS (ZARYA) 1 25544U 98067A 14093.46476597 .00017001 00000-0 29742-3 0 48 2 25544 051.6486 109.8867 0003541 349.1939 125.3572 15.50733612879734 CXO 1 25867U 99040B 14093.84129857 .00000051 00000-0 00000+0 0 100 2 25867 076.6994 324.0341 8214387 275.0430 359.8194 00.37803489 11634 ____________________________________________________________________ These 2-Line ...Continue Reading

[list_settings.list_name] Current TLEs

April 2nd 2014 PDT

HST 1 20580U 90037B 14090.69958959 .00005051 00000-0 33476-3 0 4709 2 20580 028.4696 186.4065 0003203 169.2098 345.6691 15.05066073113030 ISS (ZARYA) 1 25544U 98067A 14092.43945322 .00017011 00000-0 29798-3 0 9985 2 25544 051.6484 114.9721 0003541 346.6498 160.2311 15.50697815879575 CXO 1 25867U 99040B 14093.84129857 .00000051 00000-0 00000+0 0 100 2 25867 076.6994 324.0341 8214387 275.0430 359.8194 00.37803489 11634 ____________________________________________________________________ These 2-Line ...Continue Reading

[list_settings.list_name] Current TLEs

April 1st 2014 PDT

HST 1 20580U 90037B 14090.69958959 .00005051 00000-0 33476-3 0 4709 2 20580 028.4696 186.4065 0003203 169.2098 345.6691 15.05066073113030 ISS (ZARYA) 1 25544U 98067A 14091.40736632 .00018663 00000-0 32648-3 0 9918 2 25544 051.6488 120.0917 0003381 342.2352 159.2688 15.50663641879415 CXO 1 25867U 99040B 14093.84129857 .00000051 00000-0 00000+0 0 100 2 25867 076.6994 324.0341 8214387 275.0430 359.8194 00.37803489 11634 ____________________________________________________________________ These 2-Line ...Continue Reading

[list_settings.list_name] Current TLEs

March 31st 2014 PDT

HST 1 20580U 90037B 14089.49333993 .00004446 00000-0 29338-3 0 4697 2 20580 028.4699 194.3308 0003344 157.3438 288.9128 15.05054252112841 ISS (ZARYA) 1 25544U 98067A 14090.42839916 .00009149 00000-0 16452-3 0 9844 2 25544 051.6504 124.9471 0003494 331.2992 101.6740 15.50615007879261 CXO 1 25867U 99040B 14091.19834908 -.00000037 00000-0 00000+0 0 99 2 25867 076.6980 324.1598 8217098 275.0816 359.9848 00.37803269 11626 ____________________________________________________________________ These 2-Line ...Continue Reading
  • This mailing list is a public mailing list - anyone may join or leave, at any time.
  • This mailing list is announce-only.

International Space Station (ISS) / Hubble Space Telescope (HST) / Chandra X-Ray Observatory Orbital Data via EMAIL

Privacy Policy:

Private list